Location: Ernsee
(50.8780°N, 12.0389°E)
Time: 21:27:24
(UTC+00:00)

STARLINK-71 - Pass Details

Date: 20 January 2020
Orbit: 528 x 531 km, 53.0° (Epoch: 18 February)

Event Time Altitude Azimuth Distance (km) Brightness Sun altitude
Exits shadow 05:55:03 - 233° (SW) 2,651 6.8 -10.7°
Reaches altitude 10° 05:57:15 10° 230° (SW) 1,775 5.9 -10.3°
Maximum altitude 06:01:12 56° 152° (SSE) 635 4.2 -9.7°
Drops below altitude 10° 06:05:10 10° 74° (ENE) 1,785 7.1 -9.2°
Sets 06:07:25 0° 70° (ENE) 2,678 8.0 -8.8°
